Regional Weather Roundup
Issued by NWS Newport/Morehead, NC

Current Version | Previous Version | Text Only | Print | Product List | Glossary On
Versions: 1 2 3 4 5 6 7 8 9 10 11 12 13 14 15 16 17 18 19 20 21 22 23 24 25 26 27 28 29 30 31 32 33 34 35 36 37 38 39 40 41 42 43 44 45 46 47 48 49 50
000
ASUS42 KMHX 271425
RWRMHX
WEATHER ROUNDUP FOR EASTERN NORTH CAROLINA
NATIONAL WEATHER SERVICE NEWPORT/MOREHEAD CITY NC
1000 AM EDT WED MAY 27 2015

NOTE: "FAIR" INDICATES FEW OR NO CLOUDS BELOW 12,000 FEET
WITH NO SIGNIFICANT WEATHER AND/OR OBSTRUCTIONS TO VISIBILITY

NCZ015>017-031-032-045>047-102-103-271500-
NORTH COAST

CITY           SKY/WX    TMP DP  RH WIND       PRES   REMARKS
EDENTON        PTSUNNY   78  70  75 SW9       30.27S
ELIZABETH CITY PTSUNNY   78  69  73 S14       30.27S
KITTY HAWK     CLOUDY    76  66  69 S5        30.27S
MANTEO         CLOUDY    75  66  73 S13       30.29S

$$

NCZ045>047-081-094-103-104-271500-
CENTRAL COAST

CITY           SKY/WX    TMP DP  RH WIND       PRES   REMARKS
FRISCO         SUNNY     76  62  62 S9        30.30S
SWANQUARTER      N/A     77 N/A N/A S14       30.24S

$$

NCZ095-097-098-100-101-271500-
SOUTHERN COAST

CITY           SKY/WX    TMP DP  RH WIND       PRES   REMARKS
BEAUFORT       PTSUNNY   78  67  68 S10       30.29R
CEDAR ISLAND     N/A     79 N/A N/A S9G16     30.33S
JACKSONVILLE   CLOUDY    79  68  69 S8        30.27S
PINEY ISLAND   PTSUNNY  N/A N/A N/A S9        30.28S
WILMINGTON     PTSUNNY   79  67  66 SW7       30.28S


$$

NCZ011>013-027>030-043-044-078>080-089-090>093-098-271500-
COASTAL PLAIN

CITY           SKY/WX    TMP DP  RH WIND       PRES   REMARKS
AHOSKIE        PTSUNNY   76  69  78 CALM      30.26S
CLINTON        MOSUNNY   78  72  80 SW5       30.28S
ELIZABETHTOWN  CLOUDY    78  71  78 S6        30.28S
GOLDSBORO      PTSUNNY   81  70  69 SW10      30.24F
GREENVILLE     PTSUNNY   79  72  78 SW8       30.27S
HAVELOCK       CLOUDY    79  67  66 SW6       30.29R
KENANSVILLE    PTSUNNY   78  69  74 SW7       30.28F
KINSTON        MOSUNNY   81  70  69 SW8       30.27S
NEW BERN       CLOUDY    80  69  69 S3        30.29S
RICHLANDS      CLOUDY    81  68  65 S10       30.28S
ROCKY MOUNT    CLOUDY    77  70  79 SW7       30.26S
WASHINGTON     MOSUNNY   79  70  73 S6        30.27F
WHITEVILLE     CLOUDY    79  70  73 SW7       30.27F

$$

AMZ130-135-150-152-154-156-158-170-250-252-270-ANZ085-086-088-633-658-670-271500-
MARINE OBSERVATIONS

STATION/POSITION TIME  TEMP    WIND        PRES    WAVE   SWELL
                       AIR SEA DIR/SP/G            HT/PER HT/PER
                 (UTC) (F)     (DEG/KT/KT) (MB)    (FT/S) (FT/S)
CHESAPEAKE LIGHT 1400   67     180/ 23/ 24 1024.4
64 E VA BEACH    1350   66 63  170/ 10/ 10 1025.4    3/ 5   3/ 5
DUCK             1400   75 56  180/ 13/ 16 1024.0
2 E DUCK         1311      61                N/A     2/ 6
OREGON INLET     1400   75 75  180/ 12/ 15 1025.7
13E OREGON INLT  1400      69                N/A     3/ 5
HATTERAS CG      1400   77 74  160/  8/ 12 1025.5
DIAMOND BUOY     1350   75 76  150/ 10/ 14 1025.8    3/ 5   2/ 5
CAPE LOOKOUT     1400   74     150/  8/  9 1025.3
BEAUFORT LAB     1400   77 75  180/  9/ 12 1024.7
27 SE WRIGHTSVLE 1400   74 76  220/  4/  4   N/A
5 SE WRIGHTSVLE  1308   77 76  200/  6/ 10 1025.4
225 S CAPE HAT   1350   73 74  100/ 12/ 16 1025.5    4/ 7   3/ 7
41 SE CHARLESTON 1350   78 77   CALM  /  2 1024.8    3/ 7   3/ 7

$$


USA.gov is the U.S. government's official web portal to all federal, state and local government web resources and services.